sat.trackr.live / text

‹ back to catalog

STARLINK-35791

NORAD 66896 · 2025-283U

PAYLOAD ACTIVE UNKNOWN

§ Identity

Operator
Country
US
Launch date
2025-12-04
Launch site
AFWTR
Launch vehicle
Mass (kg)
RCS (m²)

Purposes: comms

External: N2YO · Heavens-Above · Gunter

§ Orbital elements

Epoch: 2026-05-24T22:47:36.877632Z

Period
94.10 min
Inclination
53.1592°
Eccentricity
0.0001192
Mean motion
15.30212355 rev/d
Perigee alt
474.4 km
Apogee alt
476.0 km
Semi-major
6,853.3 km
B*
6.2554e-4
RAAN
29.6815°
Arg perigee
75.9662°
Mean anomaly
284.1471°
Rev number
2,752

§ Raw data

STARLINK-357911 66896U 25283U   26144.94973238  .00018220  00000+0  62554-3 0  99942 66896  53.1592  29.6815 0001192  75.9662 284.1471 15.30212355 27521

JSON: /api/v1/satellites/66896 · /tle

For live sub-satellite position, see the globe view (requires WebGL).

§ Visibility from observer

Set your observer location to see the next 7 days of passes ≥ 10°. The values pass through the URL so the page stays shareable.

No JS? Fill the form by hand. The geolocation button needs JavaScript.